Погода в Выучейском

Россия / Ненецкий автономный округ     67°34′10″N   49°03′19″E
темп.,
°C
ветер,
м/с
пор.,
м/с
влажн.,
%
обл.,
%
осадки,
мм/ч
давл.,
гПа
погр.,
м
20 января, чт
чт2000:00−6юз121888100 0.1 985415
03:00−6ююз111887100 0.1 985391
06:00−6ююз111788100 0.0 985419
09:00−6ююз111787100 0.1 984418
12:00−6ююз111788100 0.4 985449
15:00−5ююз111787100 0.4 985429
18:00−6ююз11188891 0.0 986393
21:00−5юз101689100 0.1 987360
21 января, пт
пт2100:00−4юз9149099 0.1 989280
03:00−4ююз71291100 0.1 992214
06:00−3ююз71391100 0.0 993231
09:00−3ююз81391100 0.1 995304
12:00−2юз81491100 0.1 996358
15:00−2юз91392100 0.3 999381
18:00−3юз91391100 0.1 1001336
21:00−4зюз81391100 0.2 1005245
22 января, сб
сб2200:00−6зюз589591 0.0 1008101
03:00−8з339973 0.0 101122
06:00−5з349798 0.0 1013133
09:00−6зсз339592 0.1 1016106
12:00−9з229768 0.0 101820
15:00−11зюз229892 0.1 102014
18:00−10зюз229684 0.1 102226
21:00−11юз339574 0.1 102332
23 января, вс
вс2300:00−14юз339672 0.0 102427
03:00−14юз479423 0.0 102473
06:00−14юз5109323 0.0 1023122
09:00−15юз815865 0.0 1022178
12:00−14юз11209029 0.0 1022249
15:00−14юз122189100 0.0 1021265
18:00−12юз142287100 0.0 1021299
21:00−11юз132286100 0.0 1021421
24 января, пн
пн2400:00−10юз14238696 0.0 1020442
03:00−9юз15258388 0.0 1019419
06:00−8юз152581100 0.0 1018396
09:00−8юз152480100 0.0 1017452
12:00−8юз15258099 0.0 1017459
15:00−8юз15257949 0.0 1016434
18:00−9юз16267920 0.0 1015418
21:00−10ююз15258114 0.0 1014398